Time,TemperatureF,DewpointF,PressureIn,WindDirection,WindDirectionDegrees,WindSpeedMPH,WindSpeedGustMPH,Humidity,HourlyPrecipIn,Conditions,Clouds,dailyrainin,SoftwareType,DateUTC
2013-01-14 00:02:00,20.0,19.0,30.50,North,352,0.0,0.0,97,0.00,,,0.00,,2013-01-14 08:02:00,
2013-01-14 00:11:00,20.0,19.0,30.50,North,352,0.0,0.0,97,0.00,,,0.00,,2013-01-14 08:11:00,
2013-01-14 00:22:00,20.0,19.0,30.50,North,352,0.0,0.0,97,0.00,,,0.00,,2013-01-14 08:22:00,
2013-01-14 00:32:00,20.0,19.0,30.50,North,352,0.0,0.0,97,0.00,,,0.00,,2013-01-14 08:32:00,
2013-01-14 00:42:00,20.0,19.0,30.50,North,352,0.0,0.0,97,0.00,,,0.00,,2013-01-14 08:42:00,
2013-01-14 00:53:00,20.0,19.0,30.50,North,352,0.0,0.0,96,0.00,,,0.00,,2013-01-14 08:53:00,
2013-01-14 01:02:00,20.0,19.0,30.51,North,352,0.0,0.0,96,0.00,,,0.00,,2013-01-14 09:02:00,
2013-01-14 01:12:00,20.0,19.0,30.51,North,352,0.0,0.0,96,0.00,,,0.00,,2013-01-14 09:12:00,
2013-01-14 01:22:00,20.0,19.0,30.51,North,352,0.0,0.0,97,0.00,,,0.00,,2013-01-14 09:22:00,
2013-01-14 01:33:00,20.0,19.0,30.51,North,352,0.0,0.0,97,0.00,,,0.00,,2013-01-14 09:33:00,
2013-01-14 01:42:00,20.0,19.0,30.51,North,352,0.0,0.0,97,0.00,,,0.00,,2013-01-14 09:42:00,
2013-01-14 01:52:00,20.0,19.0,30.51,North,352,0.0,0.0,97,0.00,,,0.00,,2013-01-14 09:52:00,
2013-01-14 02:02:00,20.0,19.0,30.50,North,352,0.0,0.0,97,0.00,,,0.00,,2013-01-14 10:02:00,
2013-01-14 02:11:00,20.0,19.0,30.50,North,352,0.0,0.0,97,0.00,,,0.00,,2013-01-14 10:11:00,
2013-01-14 02:22:00,21.0,21.0,30.51,North,352,0.0,0.0,98,0.00,,,0.00,,2013-01-14 10:22:00,
2013-01-14 02:32:00,21.0,21.0,30.51,North,352,0.0,0.0,98,0.00,,,0.00,,2013-01-14 10:32:00,
2013-01-14 02:42:00,21.0,21.0,30.51,North,352,0.0,0.0,98,0.00,,,0.00,,2013-01-14 10:42:00,
2013-01-14 02:52:00,22.0,22.0,30.52,North,352,0.0,0.0,98,0.00,,,0.00,,2013-01-14 10:52:00,
2013-01-14 03:01:00,23.0,23.0,30.52,East,85,0.0,0.0,98,0.00,,,0.00,,2013-01-14 11:01:00,
2013-01-14 03:11:00,23.0,23.0,30.52,East,85,0.0,0.0,98,0.00,,,0.00,,2013-01-14 11:11:00,
2013-01-14 03:22:00,23.0,23.0,30.52,SW,216,0.0,0.0,98,0.00,,,0.00,,2013-01-14 11:22:00,
2013-01-14 03:32:00,23.0,23.0,30.51,SE,131,0.0,2.0,98,0.00,,,0.00,,2013-01-14 11:32:00,
2013-01-14 03:42:00,23.0,23.0,30.51,SE,131,0.0,2.0,98,0.00,,,0.00,,2013-01-14 11:42:00,
2013-01-14 03:53:00,23.0,23.0,30.52,WSW,248,0.0,0.0,98,0.00,,,0.00,,2013-01-14 11:53:00,
2013-01-14 04:02:00,24.0,24.0,30.52,NW,305,0.0,0.0,98,0.00,,,0.00,,2013-01-14 12:02:00,
2013-01-14 04:12:00,24.0,24.0,30.52,NW,305,0.0,0.0,98,0.00,,,0.00,,2013-01-14 12:12:00,
2013-01-14 04:22:00,24.0,23.0,30.53,NW,314,0.0,0.0,97,0.00,,,0.00,,2013-01-14 12:22:00,
2013-01-14 04:32:00,24.0,23.0,30.52,SW,229,0.0,2.0,97,0.00,,,0.00,,2013-01-14 12:32:00,
2013-01-14 04:42:00,24.0,23.0,30.52,SW,229,0.0,2.0,97,0.00,,,0.00,,2013-01-14 12:42:00,
2013-01-14 04:53:00,24.0,23.0,30.51,NNE,23,0.0,1.0,97,0.00,,,0.00,,2013-01-14 12:53:00,
2013-01-14 05:02:00,24.0,23.0,30.52,WSW,243,0.0,0.0,97,0.00,,,0.00,,2013-01-14 13:02:00,
2013-01-14 05:12:00,24.0,23.0,30.52,WSW,243,0.0,0.0,97,0.00,,,0.00,,2013-01-14 13:12:00,
2013-01-14 05:22:00,25.0,24.0,30.51,WSW,241,0.0,1.0,97,0.00,,,0.00,,2013-01-14 13:22:00,
2013-01-14 05:33:00,25.0,24.0,30.52,SW,223,0.0,1.0,97,0.00,,,0.00,,2013-01-14 13:33:00,
2013-01-14 05:43:00,25.0,24.0,30.52,SW,223,0.0,1.0,97,0.00,,,0.00,,2013-01-14 13:43:00,
2013-01-14 05:53:00,25.0,24.0,30.52,SW,231,0.0,1.0,97,0.00,,,0.00,,2013-01-14 13:53:00,
2013-01-14 06:02:00,25.0,24.0,30.52,SW,220,0.0,0.0,97,0.00,,,0.00,,2013-01-14 14:02:00,
2013-01-14 06:12:00,25.0,24.0,30.52,SW,220,0.0,0.0,97,0.00,,,0.00,,2013-01-14 14:12:00,
2013-01-14 06:22:00,25.0,24.0,30.53,SW,221,0.0,0.0,97,0.00,,,0.00,,2013-01-14 14:22:00,
2013-01-14 06:32:00,25.0,24.0,30.53,NW,323,0.0,0.0,97,0.00,,,0.00,,2013-01-14 14:32:00,
2013-01-14 06:42:00,25.0,24.0,30.53,NW,323,0.0,0.0,97,0.00,,,0.00,,2013-01-14 14:42:00,
2013-01-14 06:53:00,25.0,24.0,30.54,SSW,192,0.0,1.0,97,0.00,,,0.00,,2013-01-14 14:53:00,
2013-01-14 07:02:00,25.0,24.0,30.54,ENE,75,0.0,3.0,97,0.00,,,0.00,,2013-01-14 15:02:00,
2013-01-14 07:12:00,25.0,24.0,30.54,ENE,75,0.0,3.0,97,0.00,,,0.00,,2013-01-14 15:12:00,
2013-01-14 07:23:00,25.0,24.0,30.53,North,359,0.0,1.0,97,0.00,,,0.00,,2013-01-14 15:23:00,
2013-01-14 07:33:00,25.0,24.0,30.54,NE,47,0.0,3.0,97,0.00,,,0.00,,2013-01-14 15:33:00,
2013-01-14 07:42:00,25.0,24.0,30.54,NE,47,0.0,3.0,97,0.00,,,0.00,,2013-01-14 15:42:00,
2013-01-14 07:53:00,25.0,24.0,30.53,WNW,283,0.0,0.0,97,0.00,,,0.00,,2013-01-14 15:53:00,
2013-01-14 08:02:00,25.0,24.0,30.52,SW,233,0.0,1.0,97,0.00,,,0.00,,2013-01-14 16:02:00,
2013-01-14 08:12:00,25.0,24.0,30.52,SW,233,0.0,1.0,97,0.00,,,0.00,,2013-01-14 16:12:00,
2013-01-14 08:22:00,25.0,24.0,30.53,NNW,346,0.0,1.0,97,0.00,,,0.00,,2013-01-14 16:22:00,
2013-01-14 08:32:00,25.0,24.0,30.54,NE,41,0.0,2.0,97,0.00,,,0.00,,2013-01-14 16:32:00,
2013-01-14 08:42:00,25.0,24.0,30.54,NE,41,0.0,2.0,97,0.00,,,0.00,,2013-01-14 16:42:00,
2013-01-14 08:53:00,25.0,24.0,30.54,SW,224,0.0,0.0,97,0.00,,,0.00,,2013-01-14 16:53:00,
2013-01-14 09:02:00,26.0,25.0,30.55,SW,215,0.0,1.0,97,0.00,,,0.00,,2013-01-14 17:02:00,
2013-01-14 09:12:00,26.0,25.0,30.55,SW,215,0.0,1.0,97,0.00,,,0.00,,2013-01-14 17:12:00,
2013-01-14 09:22:00,26.0,25.0,30.54,WSW,241,0.0,4.0,96,0.00,,,0.00,,2013-01-14 17:22:00,
2013-01-14 09:33:00,26.0,25.0,30.54,West,269,0.0,3.0,97,0.00,,,0.00,,2013-01-14 17:33:00,
2013-01-14 09:42:00,26.0,25.0,30.54,West,269,0.0,3.0,97,0.00,,,0.00,,2013-01-14 17:42:00,
2013-01-14 09:53:00,26.0,25.0,30.55,SW,229,0.0,4.0,97,0.00,,,0.00,,2013-01-14 17:53:00,
2013-01-14 10:02:00,26.0,25.0,30.55,NE,55,0.0,2.0,97,0.00,,,0.00,,2013-01-14 18:02:00,
2013-01-14 10:12:00,26.0,25.0,30.55,NE,55,0.0,2.0,97,0.00,,,0.00,,2013-01-14 18:12:00,
2013-01-14 10:22:00,27.0,26.0,30.55,North,357,0.0,0.0,97,0.00,,,0.00,,2013-01-14 18:22:00,
2013-01-14 10:33:00,27.0,26.0,30.55,NNE,19,0.0,0.0,96,0.00,,,0.00,,2013-01-14 18:33:00,
2013-01-14 10:42:00,27.0,26.0,30.55,NNE,19,0.0,0.0,96,0.00,,,0.00,,2013-01-14 18:42:00,
2013-01-14 10:53:00,27.0,26.0,30.55,East,87,0.0,0.0,97,0.00,,,0.00,,2013-01-14 18:53:00,
2013-01-14 11:02:00,28.0,27.0,30.55,NE,37,0.0,1.0,96,0.00,,,0.00,,2013-01-14 19:02:00,
2013-01-14 11:12:00,28.0,27.0,30.55,NE,37,0.0,1.0,96,0.00,,,0.00,,2013-01-14 19:12:00,
2013-01-14 11:22:00,28.0,27.0,30.55,NE,39,0.0,1.0,96,0.00,,,0.00,,2013-01-14 19:22:00,
2013-01-14 11:32:00,28.0,27.0,30.55,NNE,25,0.0,5.0,96,0.00,,,0.00,,2013-01-14 19:32:00,
2013-01-14 11:42:00,28.0,27.0,30.55,NNE,25,0.0,5.0,96,0.00,,,0.00,,2013-01-14 19:42:00,
2013-01-14 11:53:00,29.0,28.0,30.54,ESE,109,0.0,3.0,96,0.00,,,0.00,,2013-01-14 19:53:00,
2013-01-14 12:03:00,29.0,28.0,30.54,SW,217,0.0,1.0,96,0.00,,,0.00,,2013-01-14 20:03:00,
2013-01-14 12:12:00,29.0,28.0,30.54,SW,217,0.0,1.0,96,0.00,,,0.00,,2013-01-14 20:12:00,
2013-01-14 12:22:00,29.0,28.0,30.54,NW,304,0.0,1.0,96,0.00,,,0.00,,2013-01-14 20:22:00,
2013-01-14 12:32:00,29.0,28.0,30.54,WSW,240,0.0,2.0,96,0.00,,,0.00,,2013-01-14 20:32:00,
2013-01-14 12:42:00,29.0,28.0,30.54,WSW,240,0.0,2.0,96,0.00,,,0.00,,2013-01-14 20:42:00,
2013-01-14 12:53:00,29.0,28.0,30.53,WSW,243,0.0,2.0,96,0.00,,,0.00,,2013-01-14 20:53:00,
2013-01-14 13:02:00,29.0,28.0,30.53,WSW,243,0.0,2.0,96,0.00,,,0.00,,2013-01-14 21:02:00,
2013-01-14 13:12:00,29.0,28.0,30.53,WSW,243,0.0,2.0,96,0.00,,,0.00,,2013-01-14 21:12:00,
2013-01-14 13:22:00,30.0,29.0,30.54,East,88,0.0,1.0,96,0.00,,,0.00,,2013-01-14 21:22:00,
2013-01-14 13:32:00,30.0,29.0,30.54,NW,317,0.0,1.0,97,0.00,,,0.00,,2013-01-14 21:32:00,
2013-01-14 13:43:00,30.0,29.0,30.54,NW,317,0.0,1.0,97,0.00,,,0.00,,2013-01-14 21:43:00,
2013-01-14 13:53:00,31.0,30.0,30.54,NE,34,0.0,0.0,96,0.00,,,0.00,,2013-01-14 21:53:00,
2013-01-14 14:02:00,31.0,30.0,30.54,WSW,243,0.0,1.0,96,0.00,,,0.00,,2013-01-14 22:02:00,
2013-01-14 14:12:00,31.0,30.0,30.54,WSW,243,0.0,1.0,96,0.00,,,0.00,,2013-01-14 22:12:00,
2013-01-14 14:23:00,31.0,30.0,30.54,NW,312,0.0,2.0,96,0.00,,,0.00,,2013-01-14 22:23:00,
2013-01-14 14:32:00,31.0,30.0,30.54,SSE,164,0.0,1.0,96,0.00,,,0.00,,2013-01-14 22:32:00,
2013-01-14 14:42:00,31.0,30.0,30.54,SSE,164,0.0,1.0,96,0.00,,,0.00,,2013-01-14 22:42:00,
2013-01-14 14:52:00,31.0,30.0,30.54,SSW,213,0.0,1.0,96,0.00,,,0.00,,2013-01-14 22:52:00,
2013-01-14 15:02:00,31.0,30.0,30.54,SW,217,0.0,0.0,96,0.00,,,0.00,,2013-01-14 23:02:00,
2013-01-14 15:12:00,31.0,30.0,30.54,SW,217,0.0,0.0,96,0.00,,,0.00,,2013-01-14 23:12:00,
2013-01-14 15:22:00,31.0,30.0,30.54,West,281,0.0,0.0,96,0.00,,,0.00,,2013-01-14 23:22:00,
2013-01-14 15:32:00,31.0,30.0,30.54,West,273,0.0,0.0,97,0.00,,,0.00,,2013-01-14 23:32:00,
2013-01-14 15:42:00,31.0,30.0,30.54,West,273,0.0,0.0,97,0.00,,,0.00,,2013-01-14 23:42:00,
2013-01-14 15:53:00,31.0,30.0,30.54,ENE,64,0.0,1.0,96,0.00,,,0.00,,2013-01-14 23:53:00,
2013-01-14 16:02:00,31.0,30.0,30.54,West,266,0.0,0.0,97,0.00,,,0.00,,2013-01-15 00:02:00,
2013-01-14 16:12:00,31.0,30.0,30.54,West,266,0.0,0.0,97,0.00,,,0.00,,2013-01-15 00:12:00,
2013-01-14 16:22:00,31.0,30.0,30.55,North,6,0.0,0.0,97,0.00,,,0.00,,2013-01-15 00:22:00,
2013-01-14 16:32:00,31.0,30.0,30.54,ENE,68,0.0,0.0,97,0.00,,,0.00,,2013-01-15 00:32:00,
2013-01-14 16:42:00,31.0,30.0,30.54,ENE,68,0.0,0.0,97,0.00,,,0.00,,2013-01-15 00:42:00,
2013-01-14 16:53:00,31.0,30.0,30.54,ENE,68,0.0,0.0,97,0.00,,,0.00,,2013-01-15 00:53:00,
2013-01-14 17:02:00,31.0,30.0,30.54,WSW,238,0.0,0.0,97,0.00,,,0.00,,2013-01-15 01:02:00,
2013-01-14 17:12:00,31.0,30.0,30.54,WSW,238,0.0,0.0,97,0.00,,,0.00,,2013-01-15 01:12:00,
2013-01-14 17:22:00,31.0,30.0,30.54,ENE,72,0.0,1.0,97,0.00,,,0.00,,2013-01-15 01:22:00,
2013-01-14 17:32:00,31.0,30.0,30.53,SW,219,0.0,0.0,97,0.00,,,0.00,,2013-01-15 01:32:00,
2013-01-14 17:42:00,31.0,30.0,30.53,SW,219,0.0,0.0,97,0.00,,,0.00,,2013-01-15 01:42:00,
2013-01-14 17:52:00,30.0,29.0,30.53,West,264,0.0,0.0,97,0.00,,,0.00,,2013-01-15 01:52:00,
2013-01-14 18:01:00,30.0,29.0,30.53,NNW,344,0.0,1.0,97,0.00,,,0.00,,2013-01-15 02:01:00,
2013-01-14 18:11:00,30.0,29.0,30.53,NNW,344,0.0,1.0,97,0.00,,,0.00,,2013-01-15 02:11:00,
2013-01-14 18:22:00,30.0,29.0,30.54,NNE,33,0.0,0.0,97,0.00,,,0.00,,2013-01-15 02:22:00,
2013-01-14 18:32:00,31.0,30.0,30.54,NNE,25,0.0,0.0,97,0.00,,,0.00,,2013-01-15 02:32:00,
2013-01-14 18:42:00,31.0,30.0,30.54,NNE,25,0.0,0.0,97,0.00,,,0.00,,2013-01-15 02:42:00,
2013-01-14 18:53:00,31.0,30.0,30.55,NE,43,0.0,1.0,97,0.00,,,0.00,,2013-01-15 02:53:00,
2013-01-14 19:02:00,31.0,30.0,30.55,WSW,239,0.0,1.0,97,0.00,,,0.00,,2013-01-15 03:02:00,
2013-01-14 19:12:00,31.0,30.0,30.55,WSW,239,0.0,1.0,97,0.00,,,0.00,,2013-01-15 03:12:00,
2013-01-14 19:22:00,31.0,30.0,30.55,West,262,0.0,0.0,97,0.00,,,0.00,,2013-01-15 03:22:00,
2013-01-14 19:32:00,31.0,30.0,30.55,West,262,0.0,0.0,97,0.00,,,0.00,,2013-01-15 03:32:00,
2013-01-14 19:42:00,31.0,30.0,30.55,West,262,0.0,0.0,97,0.00,,,0.00,,2013-01-15 03:42:00,
2013-01-14 19:52:00,31.0,30.0,30.55,West,281,0.0,0.0,97,0.00,,,0.00,,2013-01-15 03:52:00,
2013-01-14 20:02:00,31.0,30.0,30.55,WSW,249,0.0,0.0,97,0.00,,,0.00,,2013-01-15 04:02:00,
2013-01-14 20:12:00,31.0,30.0,30.55,WSW,249,0.0,0.0,97,0.00,,,0.00,,2013-01-15 04:12:00,
2013-01-14 20:22:00,31.0,30.0,30.55,WSW,249,0.0,0.0,97,0.00,,,0.00,,2013-01-15 04:22:00,
2013-01-14 20:32:00,31.0,30.0,30.55,NNE,27,0.0,2.0,97,0.00,,,0.00,,2013-01-15 04:32:00,
2013-01-14 20:42:00,31.0,30.0,30.55,NNE,27,0.0,2.0,97,0.00,,,0.00,,2013-01-15 04:42:00,
2013-01-14 20:52:00,31.0,30.0,30.56,ENE,68,0.0,1.0,97,0.00,,,0.00,,2013-01-15 04:52:00,
2013-01-14 21:03:00,31.0,31.0,30.56,ENE,69,0.0,0.0,98,0.00,,,0.00,,2013-01-15 05:03:00,
2013-01-14 21:12:00,31.0,31.0,30.56,ENE,69,0.0,0.0,98,0.00,,,0.00,,2013-01-15 05:12:00,
2013-01-14 21:22:00,31.0,31.0,30.55,NE,44,0.0,1.0,98,0.00,,,0.00,,2013-01-15 05:22:00,
2013-01-14 21:32:00,31.0,31.0,30.56,North,8,0.0,0.0,98,0.00,,,0.00,,2013-01-15 05:32:00,
2013-01-14 21:42:00,31.0,31.0,30.56,North,8,0.0,0.0,98,0.00,,,0.00,,2013-01-15 05:42:00,
2013-01-14 21:52:00,31.0,31.0,30.56,North,8,0.0,0.0,98,0.00,,,0.00,,2013-01-15 05:52:00,
2013-01-14 22:02:00,31.0,31.0,30.56,North,8,0.0,0.0,98,0.00,,,0.00,,2013-01-15 06:02:00,
2013-01-14 22:12:00,31.0,31.0,30.56,North,8,0.0,0.0,98,0.00,,,0.00,,2013-01-15 06:12:00,
2013-01-14 22:22:00,31.0,31.0,30.56,North,8,0.0,0.0,98,0.00,,,0.00,,2013-01-15 06:22:00,
2013-01-14 22:32:00,31.0,31.0,30.55,SW,214,0.0,0.0,98,0.00,,,0.00,,2013-01-15 06:32:00,
2013-01-14 22:42:00,31.0,31.0,30.55,SW,214,0.0,0.0,98,0.00,,,0.00,,2013-01-15 06:42:00,
2013-01-14 22:53:00,31.0,31.0,30.56,SW,214,0.0,0.0,98,0.00,,,0.00,,2013-01-15 06:53:00,
2013-01-14 23:02:00,31.0,31.0,30.56,SW,214,0.0,0.0,98,0.00,,,0.00,,2013-01-15 07:02:00,
2013-01-14 23:12:00,31.0,31.0,30.56,SW,214,0.0,0.0,98,0.00,,,0.00,,2013-01-15 07:12:00,
2013-01-14 23:22:00,31.0,31.0,30.57,SW,214,0.0,0.0,98,0.00,,,0.00,,2013-01-15 07:22:00,
2013-01-14 23:32:00,31.0,31.0,30.58,SW,214,0.0,0.0,98,0.00,,,0.00,,2013-01-15 07:32:00,
2013-01-14 23:42:00,31.0,31.0,30.58,SW,214,0.0,0.0,98,0.00,,,0.00,,2013-01-15 07:42:00,
2013-01-14 23:52:00,31.0,31.0,30.58,West,276,0.0,0.0,98,0.00,,,0.00,,2013-01-15 07:52:00,